Terminal Aerodrome Forecast
Issued by NWS

Home | Current Version | Previous Version | Text Only | Print | Product List | Glossary On
Versions: 1 2 3 4 5 6 7 8 9 10 11 12 13 14 15 16 17 18 19 20 21 22 23 24 25 26 27 28 29 30 31 32 33 34 35 36 37 38 39 40 41 42 43 44 45 46 47
000
FTUS42 KRAH 020505 AAA
TAFRWI
TAF AMD
KRWI 020505Z 0205/0224 00000KT P6SM SCT050
     FM020700 00000KT 3SM BR SCT005
      TEMPO 0207/0211 1SM BR BKN005
     FM021400 25005KT P6SM SCT050=

USA.gov is the U.S. government's official web portal to all federal, state and local government web resources and services.